EW3836 Weather Reports


Display with metric or nautical units.
time (UTC)temp
F
wind
direction
speed
MPH
gust
MPH
rain 1hr
in
rain 24hr
in
rain mn
in
humidity
%
barometer
mb
20260904061527 45 122 0.0 0.0 0.00 0.32 0.22 87 1008.2
20260904060024 45 120 0.0 0.0 0.00 0.32 0.22 87 1008.2
20260904054523 45 116 0.0 0.0 0.00 0.34 0.22 86 1008.1
20260904053033 45 111 0.0 0.0 0.00 0.34 0.22 87 1008.2
20260904051518 45 175 0.0 0.0 0.00 0.34 0.22 87 1008.2
20260904050029 45 134 0.0 0.0 0.01 0.34 0.22 87 1008.3
20260904044520 45 122 0.0 0.0 0.02 0.34 0.22 87 1008.1
20260904043015 45 109 0.0 0.0 0.03 0.34 0.22 86 1007.9
20260904041515 45 136 0.0 0.0 0.04 0.34 0.22 86 1008.2
20260904040013 45 159 0.0 0.0 0.04 0.33 0.21 88 1008.1
20260904034513 45 101 0.0 0.0 0.04 0.32 0.20 89 1008.3
20260904033011 45 75 0.0 0.0 0.05 0.31 0.19 90 1008.3
20260904031510 45 160 0.0 0.0 0.06 0.30 0.18 90 1008.2
20260904030008 46 127 0.0 0.0 0.06 0.28 0.17 89 1008.7
20260904024507 47 146 0.0 0.0 0.06 0.28 0.16 89 1008.5
20260904023005 47 135 0.0 0.0 0.04 0.26 0.14 87 1008.3
20260904021506 48 124 0.0 0.0 0.02 0.24 0.12 84 1008.2
20260904020004 49 159 0.0 0.0 0.01 0.23 0.11 79 1008.0
20260904014503 51 159 0.0 0.0 0.00 0.22 0.10 72 1007.9
20260904013002 52 274 0.0 0.0 0.00 0.22 0.10 64 1007.9
20260904011502 53 321 0.0 0.0 0.00 0.22 0.10 58 1007.8
20260904010107 53 144 0.0 0.0 0.00 0.22 0.10 68 1007.7
20260904004600 53 40 0.0 0.0 0.00 0.22 0.10 70 1007.2
20260904003059 54 38 0.0 0.0 0.00 0.22 0.10 69 1007.4
20260904001606 54 161 0.0 0.0 0.00 0.22 0.10 68 1007.5
20260904000114 55 123 0.0 0.0 0.00 0.22 0.10 68 1007.3
20260903234556 55 194 0.0 0.0 0.00 0.22 0.10 66 1007.6
20260903233119 55 61 0.0 0.0 0.00 0.22 0.10 66 1007.7
20260903231556 56 321 0.0 0.0 0.00 0.22 0.10 64 1007.7
20260903230109 56 63 0.0 0.0 0.00 0.22 0.10 63 1007.6
20260903224623 57 309 0.0 0.0 0.00 0.22 0.10 59 1007.9
20260903223130 56 46 0.0 0.0 0.00 0.22 0.10 61 1007.7
20260903221553 56 325 0.0 0.0 0.00 0.22 0.10 59 1008.0
20260903220051 57 217 0.0 0.0 0.00 0.22 0.10 59 1007.9
20260903214556 57 229 0.0 0.0 0.00 0.22 0.10 59 1008.2
20260903213106 56 204 0.0 0.0 0.00 0.22 0.10 58 1008.4
20260903211549 56 264 0.0 0.0 0.00 0.22 0.10 60 1008.0
20260903210111 56 259 0.0 0.0 0.00 0.22 0.10 59 1008.5
20260903204545 56 237 0.0 0.0 0.00 0.22 0.10 63 1008.6
20260903203042 55 307 0.0 0.0 0.00 0.22 0.10 65 1008.5
20260903201541 55 319 0.0 0.0 0.00 0.22 0.10 65 1008.6
20260903200036 55 313 0.0 0.0 0.00 0.22 0.10 64 1008.6
20260903194542 56 304 0.0 0.0 0.00 0.22 0.10 64 1008.6
20260903193032 55 150 0.0 0.0 0.00 0.22 0.10 66 1008.6
20260903191529 55 93 0.0 0.0 0.00 0.22 0.10 68 1008.6
20260903190026 55 96 0.0 0.0 0.00 0.22 0.10 68 1008.7
20260903184521 54 102 0.0 0.0 0.00 0.22 0.10 69 1009.0
20260903183018 53 256 0.0 0.0 0.00 0.22 0.10 67 1009.0
20260903181515 53 250 0.0 0.0 0.00 0.22 0.10 70 1009.1
20260903180015 53 269 0.0 0.0 0.00 0.22 0.10 70 1009.2
20260903174516 52 236 0.0 0.0 0.00 0.22 0.10 74 1009.2
20260903173013 52 248 0.0 0.0 0.00 0.22 0.10 72 1009.1
20260903171512 52 228 0.0 0.0 0.00 0.22 0.10 74 1009.1
20260903170012 52 175 0.0 0.0 0.00 0.22 0.10 77 1009.1
20260903164505 51 158 0.0 0.0 0.00 0.22 0.10 78 1009.1
20260903163002 50 172 0.0 0.0 0.00 0.22 0.10 79 1009.1
20260903161501 50 173 0.0 0.0 0.00 0.22 0.10 81 1009.0
20260903160059 49 167 0.0 0.0 0.00 0.22 0.10 84 1008.9
20260903154559 49 212 0.0 0.0 0.00 0.22 0.10 85 1009.2
20260903153055 48 192 0.0 0.0 0.00 0.22 0.10 87 1009.1
20260903151558 48 151 0.0 0.0 0.00 0.22 0.10 87 1009.1
20260903144553 48 175 0.0 0.0 0.00 0.22 0.10 88 1009.4
20260903143053 47 189 0.0 0.0 0.00 0.22 0.10 86 1009.1
20260903141549 47 225 0.0 0.0 0.00 0.22 0.10 88 1009.1
20260903140047 47 198 0.0 0.0 0.00 0.22 0.10 88 1009.0
20260903134548 47 195 0.0 0.0 0.00 0.22 0.10 88 1008.8
20260903133045 47 213 0.0 0.0 0.00 0.22 0.10 88 1008.8
20260903131556 47 225 0.0 0.0 0.00 0.22 0.10 89 1008.6
20260903130044 47 194 0.0 0.0 0.00 0.22 0.10 91 1008.3
20260903124541 47 207 0.0 0.0 0.00 0.22 0.10 92 1008.3
20260903123042 47 194 0.0 0.0 0.00 0.22 0.10 92 1008.2
20260903121552 47 295 0.0 0.0 0.01 0.22 0.10 93 1008.1
20260903120035 47 173 0.0 0.0 0.01 0.22 0.10 93 1007.9
20260903114533 47 146 0.0 0.0 0.02 0.22 0.10 93 1007.8
20260903113031 47 153 0.0 0.0 0.02 0.22 0.10 93 1007.7
20260903111531 47 199 0.0 0.0 0.02 0.21 0.09 93 1007.6
20260903110030 48 173 0.0 0.0 0.03 0.21 0.09 93 1007.5
20260903104546 47 181 0.0 0.0 0.03 0.20 0.08 93 1007.5
20260903103028 47 232 0.0 0.0 0.04 0.20 0.08 93 1007.8
20260903101526 48 193 0.0 0.0 0.03 0.19 0.07 93 1007.7
20260903100036 48 221 0.0 0.0 0.02 0.18 0.06 92 1007.5
20260903094525 48 247 0.0 0.0 0.01 0.17 0.05 91 1007.7
20260903093027 48 171 0.0 0.0 0.00 0.16 0.04 91 1007.3
20260903091519 48 182 0.0 0.0 0.00 0.16 0.04 91 1007.1
20260903090015 49 181 0.0 0.0 0.00 0.16 0.04 90 1006.8
20260903084518 48 163 0.0 0.0 0.01 0.16 0.04 90 1006.9
20260903083012 48 156 0.0 0.0 0.02 0.16 0.04 91 1006.9
20260903081513 48 165 0.0 0.0 0.02 0.16 0.04 91 1006.9
20260903080009 48 164 0.0 0.0 0.04 0.16 0.04 91 1006.8
20260903074508 48 162 0.0 0.0 0.06 0.15 0.03 91 1006.7
20260903073014 48 190 0.0 0.0 0.08 0.14 0.02 91 1006.5
20260903071503 48 207 0.0 0.0 0.11 0.14 0.02 92 1006.5
20260903070100 47 180 0.0 0.0 0.10 0.12 0.00 93 1006.6
20260903070001 47 180 0.0 0.0 0.10 0.12 0.00 93 1006.6
20260903064556 48 261 0.0 0.0 0.08 0.09 0.09 93 1006.6
20260903063053 49 269 0.0 0.0 0.06 0.06 0.06 91 1006.7